TIANWANG 1B (TW-1B)
1 40927U 15051C   19348.40745360  .00011663  00000-0  15810-3 0  9993
2 40927  97.1158  33.5341 0009172  81.1293 290.1982 15.57773127237803
TIANWANG 1A (TW-1A)
1 40928U 15051D   19348.37470194  .00002355  00000-0  57722-4 0  9997
2 40928  97.1288  15.6474 0011899 136.3078 349.7595 15.41659935236699
LAPAN A2
1 40931U 15052B   19347.66238402  .00000634  00000-0 -72604-6 0  9994
2 40931   5.9996 227.5001 0012672 152.9822 207.0947 14.76621471227606
LQSAT
1 40958U 15057A   19348.34418538  .00000014  00000-0  98605-5 0  9993
2 40958  97.8793  52.5209 0018803  31.9199 328.3144 14.73100086225101
CHUBUSAT 2
1 41338U 16012B   19347.67693710 +.00000261 +00000-0 +13582-4 0  9994
2 41338 031.0031 093.5980 0013687 065.6843 294.5220 15.00219109209665
CHUBUSAT 3
1 41339U 16012C   19348.49073753  .00000291  00000-0  15861-4 0  9990
2 41339  31.0113  86.2920 0013493  80.2484 279.9667 15.00389988209787
OUFTI-1
1 41458U 16025C   19348.25055986  .00000960  00000-0  51996-4 0  9990
2 41458  98.1003  84.1948 0166449 116.3853 245.4567 15.06304695199445
E-STAR-2
1 41459U 16025D   19348.37763031  .00000859  00000-0  47254-4 0  9990
2 41459  98.0999  83.8835 0167919 117.5549 244.2846 15.05907850199435
AAUSAT 4
1 41460U 16025E   19348.51941450  .00001702  00000-0  87227-4 0  9993
2 41460  98.0985  85.7539 0157413 108.0478 253.7949 15.07990531199617
NUSAT 1
1 41557U 16033B   19348.50324725  .00000920  00000-0  36773-4 0  9999
2 41557  97.4126  74.9456 0014424  32.1779 328.0337 15.27595745197386
BEESAT 4
1 41619U 16040W   19348.45139803  .00001069  00000-0  47611-4 0  9999
2 41619  97.3464  47.1621 0012819 112.3686 247.8911 15.23535847181077
PRATHAM
1 41783U 16059A   19348.10538773  .00000048  00000-0  18584-4 0  9995
2 41783  98.0451  43.5278 0033630 180.6834 179.4328 14.63026101171632
ALSAT 1N
1 41789U 16059G   19348.41987665  .00000066  00000-0  21393-4 0  9995
2 41789  98.0483  46.2274 0028739 167.9052 192.2854 14.64282877171804
NAYIF 1
1 42017U 17008BX  19347.76026420 +.00001215 +00000-0 +50092-4 0  9990
2 42017 097.3843 052.8628 0004627 258.0263 102.0457 15.25972331157073
MAX VALIER SAT
1 42778U 17036P   19348.40476249  .00000704  00000-0  33537-4 0  9992
2 42778  97.3324  41.9283 0011124 322.6898  37.3564 15.22298591137421
